Home   Weather   Kufstein   Past weeks

Flag for Austria Past Weather in Kufstein, Tyrol, Austria — Yesterday and Last 2 Weeks

Now
64 °F

Mild.


Feels Like: 64 °F
Forecast: 34 / 58 °F
Wind: 3 mph from Northeast

Location: Kufstein

Current Time: Apr 30, 2017 at 7:11:15 pm

Latest Report: Apr 30, 2017 at 6:00 pm


Visibility: N/A

Pressure: 29.74 "Hg

Humidity: 38%

Dew Point: 38 °F

Location of KufsteinLocation

Past Weather in Kufstein — Graph

°F

Kufstein Temperature Yesterday

Maximum temperature yesterday: 54 °F (at 4:00 pm)
Minimum temperature yesterday: 35 °F (at 12:00 am)
Average temperature yesterday: 43 °F

High & Low Weather Summary for the Past Weeks

 TemperatureHumidityPressure
High64 °F (Apr 30, 5:00 pm)97% (Apr 29, 12:00 am)30.64 "Hg (Apr 29, 12:00 am)
Low27 °F (Apr 21, 7:00 am)31% (Apr 30, 3:00 pm)29.68 "Hg (Apr 25, 2:00 pm)
Average41 °F79%30.13 "Hg
* Reported Apr 15 5:00 pm — Apr 30 5:00 pm, Kufstein, Weather by CustomWeather, © 2017

Note: Actual official high and low records may vary slightly from our data, if they occured in-between our weather recording intervals... More about our weather records

Advertising

Kufstein Weather History for the Previous 24 Hours

Scroll right to see more
 ConditionsComfort  
Time TempWeatherWind HumidityBarometerVisibility
5:00 pm
Sun, Apr 30
64 °FMild.3 mph37%29.75 "HgN/A
4:00 pm64 °FMild.2 mph31%29.78 "HgN/A
3:00 pm62 °FRefreshingly cool.2 mph31%29.80 "HgN/A
2:00 pm60 °FRefreshingly cool.2 mph35%29.85 "HgN/A
1:00 pm58 °FRefreshingly cool.1 mph37%29.89 "HgN/A
12:00 pm54 °FCool.2 mph47%29.93 "HgN/A
11:00 am51 °FCool.2 mph53%29.96 "HgN/A
10:00 am46 °FCool.3 mph62%30.01 "HgN/A
9:00 am42 °FQuite cool.2 mph76%30.05 "HgN/A
8:00 am35 °FChilly.1 mph87%30.08 "HgN/A
7:00 am32 °FSunny.1 mph93%30.10 "Hg19 mi
6:00 am31 °FChilly.No wind92%30.09 "HgN/A
5:00 am32 °FChilly.No wind92%30.10 "HgN/A
4:00 am33 °FChilly.No wind91%30.11 "HgN/A
3:00 am34 °FChilly.No wind90%30.10 "HgN/A
2:00 am34 °FChilly.No wind90%30.11 "HgN/A
1:00 am36 °FChilly.1 mph88%30.11 "HgN/A
12:00 am37 °FChilly.No wind84%30.11 "HgN/A
11:00 pm
Sat, Apr 29
39 °FChilly.1 mph81%30.11 "HgN/A
10:00 pm41 °FQuite cool.1 mph74%30.09 "HgN/A
9:00 pm44 °FQuite cool.2 mph67%30.06 "HgN/A
8:00 pm49 °FCool.1 mph50%30.04 "HgN/A
7:00 pm53 °FCool.2 mph44%30.02 "HgN/A
Weather by CustomWeather, © 2017

See weather overviewHow to use our weather pages